Showing default

WREN-1, 60478

Orbit data source: Space-Track

WREN-1, 60478 is a payload satellite owned by C3S (HU) in SSO that was launched on Fri, 16 Aug 2024 UTC via an FALCON 9 launch vehicle from the Air Force Western Test Range (AFWTR). Payload-class satellites include a variety of spacecraft equipped with specific instruments for various scientific and technological missions. These include communications satellites like Starlink; space stations such as the ISS; scientific satellites like the Hubble; Earth observation satellites from companies like Planet Labs, Umbra, and HawkEye 360; GPS; miniature CubeSats for education and research; and military/defense satellites.

Loading next visibility...
Identifier
60478, 2024-149L
Orbit
SSO
Country
Flag of HUHU / HUN
Related business
Manufacturer
C3S
Mission
Operational Commercial Technology
Bus & Motor
CUBESAT 6U, Unknown motor
Mass
~10 kg wet, ~10 kg dry
Launch date (UTC)
2024-08-16 (1 year ago)
Launch vehicle
FALCON 9
Launch site
Air Force Western Test Range (AFWTR)
Object type
Payload
Rocket body
Debris
Shape & HBR
Box + 2 Pan, 0.4 m
Radar Cross Section
0.115 m², Medium (>0.1 m² and < 1m²)

Expand to show TLE details & history
Last TLE update: 9 hours ago

TLE from 9 hours ago
0 WREN-1
1 60478U 24149L   26036.19820409  .00028270  00000-0  80793-3 0  9994
2 60478  97.3860 119.4232 0004937  28.2828 331.8683 15.35945525 82023
Epoch: 2026-02-05T04:45Z
TLE epoch observation values (Epoch: 2026-02-05T04:45:24.833Z)
Latitude
-0.00002°
Longitude
-87.28414°
Altitude
458.249 km
Speed
7.639 km/s
True Right ascension
07h 57m 41s
True Declination
0° 00' 00"
Sunlit
Object was in full shadow at epoch
Visualization orbit readout
Latitude
Unknown
Longitude
Unknown
Altitude
Unknown
Speed
Unknown
Apparent Right ascension
Unknown
Apparent Declination
Unknown
Sunlit
N/A
Visualization observer readout
Local Sidereal Time
16:04:05
Azimuth
Unknown
Elevation
Unknown
Doppler factor
Unknown
Orbital elements
Apogee altitude
458.431 km
Perigee altitude
451.684 km
Semi-major axis
6,833.194 km
Eccentricity
0.00049
Inclination
97.386°
RAAN
119.4232°
Arg. of periapsis
28.2828°
True anomaly
331.84161°
Mean anomaly
331.8683°
Eccentric anomaly
331.85496°
Mean motion
3.84244 °/min
Orbital period
93.69 mins
BSTAR
0.00080793
Loading maneuver chart data...
Computing Atmospheric mass density...
Loading historical data...
Loading historical data...
Loading historical data...
Loading historical data...
Loading historical data...
Loading historical data...
Loading historical data...

Documentation

Showing up to 5 results
|